STARLINK-32209

Last updated on Fri Sep 20 2024 00:02:03 GMT+0000 (Coordinated Universal Time)

1 60590U 24150H 24263.58334491 .00020623 00000+0 52400-3 0 9992 2 60590 53.1575 279.4075 0001210 89.2408 131.6437 15.39628591 6018
UTC large
Height (km)
Speed (km/s)
/
Latitude / Longitude
Inclination (degrees)
Orbital Period (minutes)
Azimuth
Elevation
Range (km)
Doppler Factor

Next 0 passes for location: London (51.5072 / 0.1276)

Sorry there are no passes over London.